Temperature
6 6 6 5 5 5 4 4 3 3 3 4 3 4 3 3 3 3 3 3 2 2 2 2 2 2 2 1 1 1 1 1 1 1 2 2 2 2
6 5 5 5 5 4 4 4 3 2 2 3 3 3 3 3 3 3 3 2 2 2 2 2 2 2 1 1 1 1 1 1 1 1 1 1 1 2
5 5 5 5 4 4 4 3 3 2 2 3 3 3 3 2 2 2 2 2 2 2 2 1 1 1 1 1 1 1 0 0 0 0 1 1 1 1
5 5 4 4 4 4 3 3 3 2 2 2 2 2 2 2 2 2 2 1 1 2 1 1 1 1 1 0 0 0 0 -0 -0 0 0 0 1 1
4 4 4 4 3 3 3 3 2 2 2 2 2 2 2 1 1 1 1 1 1 1 1 1 1 1 0 0 -0 -0 -0 -0 -0 -0 -0 0 0 1
4 4 3 3 3 3 2 2 2 2 2 2 1 1 1 1 1 1 1 1 1 1 1 1 0 0 0 -0 -0 -1 -1 -1 -1 -1 -0 -0 0 0
3 3 3 3 2 2 2 2 1 1 1 1 1 1 0 0 -0 -1 -1 -0 0 0 0 0 0 0 0 -0 -1 -1 -1 -1 -1 -1 -1 -1 -0 0
3 3 2 2 2 2 2 1 1 1 1 0 0 -0 -0 -1 -1 -1 -1 -1 -1 -1 -1 -0 -0 -0 -0 -1 -1 -1 -1 -1 -1 -1 -1 -1 -0 -0
3 2 2 2 2 1 1 1 1 1 0 -0 -0 -1 -1 -1 -1 -2 -2 -2 -2 -2 -2 -1 -0 -0 -1 -1 -1 -1 -1 -1 -1 -1 -1 -1 -1 -1
2 2 2 1 1 1 1 1 1 1 0 -0 -1 -1 -1 -2 -2 -2 -2 -2 -2 -2 -2 -2 -1 -1 -1 -1 -1 -1 -1 -1 -1 -1 -1 -1 -1 -1
1 1 1 1 1 0 0 0 0 0 -0 -1 -1 -1 -1 -2 -2 -2 -2 -3 -2 -2 -2 -3 -2 -2 -1 -1 -1 -1 -1 -2 -2 -1 -1 -1 -1 -1
1 1 1 0 0 0 -0 -0 -0 -1 -1 -1 -1 -1 -1 -2 -2 -2 -3 -3 -3 -3 -3 -3 -3 -3 -3 -1 -1 -1 -1 -2 -2 -2 -2 -2 -2 -1
0 0 0 0 -0 -0 -0 -1 -1 -1 -1 -1 -1 -2 -2 -2 -2 -2 -3 -3 -4 -4 -3 -4 -3 -4 -4 -3 -2 -2 -2 -2 -2 -2 -2 -2 -2 -2
0 -0 -0 -0 -0 -0 -1 -1 -1 -2 -1 -2 -2 -2 -2 -2 -2 -3 -3 -3 -3 -3 -3 -4 -4 -4 -4 -4 -3 -2 -2 -2 -2 -2 -2 -2 -2 -2
-0 -0 -1 -1 -1 -1 -1 -1 -2 -2 -2 -2 -3 -3 -3 -3 -3 -3 -3 -3 -3 -3 -3 -4 -4 -4 -4 -4 -4 -3 -3 -2 -2 -3 -2 -2 -2 -2
-1 -1 -1 -1 -1 -1 -1 -2 -2 -2 -3 -3 -3 -3 -3 -3 -3 -3 -3 -3 -3 -3 -3 -3 -3 -3 -3 -3 -3 -3 -3 -3 -3 -3 -3 -2 -2 -2
-2 -2 -2 -2 -1 -2 -2 -2 -2 -3 -3 -3 -3 -3 -3 -3 -3 -4 -4 -4 -4 -4 -3 -3 -3 -3 -3 -3 -3 -3 -3 -3 -3 -3 -3 -3 -2 -2
-2 -2 -2 -2 -2 -2 -2 -3 -3 -3 -3 -3 -4 -4 -4 -4 -4 -4 -4 -4 -4 -4 -4 -4 -3 -3 -3 -3 -3 -3 -3 -3 -3 -3 -3 -3 -3 -2
-2 -2 -2 -3 -3 -3 -3 -3 -3 -4 -4 -4 -4 -4 -4 -4 -4 -4 -4 -4 -4 -4 -4 -4 -4 -4 -4 -4 -3 -3 -4 -3 -3 -3 -3 -3 -3 -2
-3 -3 -3 -3 -3 -3 -4 -4 -4 -4 -4 -4 -4 -4 -4 -5 -5 -5 -5 -5 -5 -5 -4 -4 -4 -5 -5 -5 -4 -3 -3 -3 -3 -3 -3 -3 -3 -2
-3 -3 -4 -3 -4 -4 -4 -4 -4 -4 -4 -4 -4 -4 -5 -5 -5 -5 -5 -5 -5 -5 -5 -4 -4 -4 -4 -4 -4 -3 -3 -3 -4 -4 -3 -3 -3 -3
-4 -4 -4 -4 -4 -4 -4 -4 -4 -5 -5 -5 -5 -5 -5 -5 -5 -5 -5 -5 -5 -5 -5 -4 -4 -4 -4 -4 -5 -4 -3 -3 -3 -3 -3 -3 -4 -4
-4 -4 -4 -4 -4 -5 -5 -5 -5 -5 -5 -5 -5 -5 -5 -5 -5 -5 -5 -5 -5 -5 -5 -4 -4 -4 -4 -4 -5 -4 -4 -4 -4 -3 -3 -3 -3 -3
Wind_Speed
2 1 0 0 0 1 0 1 1 3 4 4 3 4 10 12 14 14 15 18 19 20 20 20 20 21 21 21 21 21 22 22 23 23 24 25 26 26
1 1 0 1 1 1 1 1 1 2 4 4 5 7 10 11 15 15 15 18 18 19 20 20 21 21 21 21 21 21 21 22 23 23 24 25 26 25
1 1 0 0 1 1 1 1 1 2 5 6 5 6 7 9 12 13 14 14 14 18 20 20 21 21 20 21 21 21 22 22 23 23 24 25 25 26
1 1 0 1 1 1 1 2 2 2 3 7 6 6 8 9 9 9 11 13 14 17 18 19 20 20 20 21 21 21 21 22 22 23 24 24 25 25
2 2 1 0 1 2 2 2 2 3 3 4 6 6 6 7 9 9 9 8 13 15 17 18 19 20 20 20 21 21 21 22 22 23 23 23 24 25
1 1 1 2 2 2 2 2 3 3 3 4 6 7 7 7 7 8 10 8 9 11 13 16 18 19 19 20 20 20 21 22 22 22 23 23 23 24
0 0 1 1 2 2 2 2 2 3 3 4 6 7 7 8 8 7 9 10 9 5 8 10 11 10 13 17 18 20 21 22 22 22 22 22 22 23
1 0 1 2 3 4 5 4 4 3 4 4 5 7 8 8 8 8 8 9 7 5 8 10 8 8 9 11 17 21 21 21 22 22 22 22 22 23
1 0 1 2 3 2 4 5 5 7 6 5 5 7 8 8 8 9 9 9 9 8 8 8 6 8 10 13 18 19 20 21 22 22 22 22 22 22
1 0 0 2 3 2 2 3 4 5 6 5 4 6 7 7 7 7 8 9 8 6 4 5 6 7 10 10 15 18 20 21 21 22 23 22 22 21
0 1 1 2 4 4 3 3 5 6 8 9 9 9 11 12 10 6 7 8 9 6 3 4 5 8 7 6 10 16 19 20 21 22 22 22 22 20
1 1 2 3 4 4 2 2 4 5 6 7 8 9 8 9 11 6 5 7 7 6 4 5 5 6 6 4 6 10 12 16 20 20 21 22 22 14
0 1 2 4 5 5 4 2 5 5 4 5 5 5 5 5 6 7 5 5 6 6 6 5 5 5 5 6 7 7 8 9 11 13 17 20 21 16
0 1 2 4 5 6 4 5 7 6 3 4 5 5 6 6 7 7 8 7 7 8 9 7 5 6 6 7 7 7 7 8 8 8 10 16 16 18
0 2 3 4 5 4 5 6 6 4 3 4 5 6 5 6 6 6 7 8 8 9 9 8 6 6 6 6 6 7 7 7 7 8 9 9 9 9
1 2 3 4 4 4 5 4 4 3 4 4 5 5 5 5 5 6 6 7 6 6 7 9 7 6 6 7 6 7 7 6 8 9 9 8 8 8
2 2 2 2 3 3 4 4 4 4 4 4 5 5 5 6 6 5 5 6 5 7 8 7 8 7 6 5 5 6 6 7 7 8 8 8 8 8
2 1 1 2 2 3 4 4 4 4 4 5 5 5 5 6 6 6 5 5 6 7 7 7 8 8 5 3 3 5 5 6 7 8 7 7 8 8
2 1 1 2 2 3 4 4 4 5 5 4 5 5 5 5 5 6 6 6 6 7 7 6 6 6 7 7 5 4 5 7 7 7 7 6 6 8
1 0 1 2 3 3 4 4 4 4 4 4 5 5 5 5 5 6 6 6 6 7 7 6 5 6 5 6 5 6 9 6 6 7 7 6 5 7
1 1 2 2 3 3 4 4 4 4 5 4 5 5 5 5 5 5 6 8 7 6 7 7 7 10 6 4 4 5 6 9 8 6 6 6 6 6
1 2 2 3 3 3 4 4 4 4 4 4 5 5 5 5 5 6 6 6 5 6 6 6 6 6 4 5 5 6 8 9 10 12 9 6 4 4
2 2 3 3 3 3 3 4 4 4 4 4 4 4 5 5 5 5 5 5 5 6 6 6 6 5 5 5 5 5 8 8 7 8 8 13 11 9
Wind_Direction
147 141 147 275 295 273 247 209 247 300 298 289 308 315 328 328 327 329 326 326 331 332 329 329 329 329 329 329 328 327 327 325 323 322 321 320 319 317
138 120 68 300 326 324 302 299 251 253 277 286 296 311 321 324 327 328 323 327 329 330 330 331 330 330 330 329 329 327 327 326 325 324 323 322 321 319
101 108 327 322 325 321 328 317 292 270 279 295 301 315 318 321 325 325 325 323 324 328 330 330 329 330 330 330 330 329 328 328 327 326 325 323 323 322
162 148 268 339 334 320 311 297 292 282 279 299 312 319 316 317 321 323 327 327 323 325 329 329 329 330 331 331 331 331 330 330 329 328 326 325 326 324
180 186 228 270 304 302 297 294 295 307 300 299 311 315 314 319 326 325 324 322 325 326 328 329 329 330 331 332 332 332 332 332 331 329 328 327 327 327
185 197 227 240 252 269 288 295 304 311 316 315 316 319 317 320 327 329 329 330 325 324 328 328 327 329 330 331 332 333 333 333 333 332 331 331 330 329
154 250 268 299 310 309 318 312 317 319 321 321 319 322 324 330 330 325 324 324 320 313 325 321 320 320 325 328 331 333 334 335 336 335 334 334 334 333
158 327 314 324 329 334 333 334 334 324 315 312 313 315 314 318 320 323 324 327 323 321 324 315 314 315 319 324 328 332 335 338 339 338 337 336 336 337
164 178 338 335 340 315 328 342 337 333 326 310 299 302 306 311 317 321 321 318 307 308 317 305 309 314 317 322 326 332 337 339 339 339 339 339 338 340
142 175 273 308 318 336 345 340 326 323 321 315 296 299 307 310 308 308 307 311 302 298 297 295 307 314 316 315 321 331 337 339 340 341 342 343 342 341
31 26 355 306 328 351 355 332 329 327 333 329 323 324 326 329 331 330 329 328 321 316 315 308 310 316 309 303 316 329 335 339 340 342 344 345 345 343
21 353 341 339 340 351 347 327 324 322 329 333 335 335 334 331 335 332 317 319 319 313 317 324 313 327 319 302 311 324 331 335 339 340 344 346 347 346
28 334 320 339 344 344 346 326 320 328 326 326 328 328 331 334 332 330 319 307 307 301 305 318 309 313 301 307 311 317 327 330 333 335 340 344 347 349
195 299 321 347 349 346 349 346 347 348 339 337 337 334 334 333 329 327 322 315 298 287 292 299 295 305 311 310 310 319 327 330 334 336 336 341 344 346
2 345 352 355 354 352 356 357 358 351 342 340 332 326 323 320 321 325 325 327 321 311 306 303 299 302 303 301 305 312 319 326 335 340 340 342 342 343
29 27 21 17 12 359 358 357 353 341 337 327 322 321 323 328 328 329 327 331 331 326 322 323 315 309 311 302 300 309 320 324 332 335 336 338 343 346
59 47 23 12 7 360 356 352 348 345 341 334 331 331 330 331 329 329 327 329 329 330 333 334 329 315 293 297 304 314 324 328 328 333 337 342 344 348
71 60 20 2 350 341 340 340 338 336 331 328 330 329 328 329 328 330 332 333 331 332 332 333 336 339 338 327 296 308 327 329 331 337 340 340 344 347
74 61 358 335 330 328 327 326 324 325 326 326 327 327 326 325 326 330 333 335 333 331 329 331 337 345 346 344 334 336 332 329 333 338 341 341 338 337
70 18 319 315 314 314 316 319 321 323 326 325 324 325 324 322 325 328 330 332 331 331 333 337 339 340 332 320 314 319 332 329 331 334 334 333 333 327
335 309 302 301 300 304 308 311 314 316 318 319 320 321 321 321 324 324 326 329 333 333 333 332 325 326 321 324 330 339 344 348 346 333 332 338 345 359
286 290 292 291 294 296 301 306 311 313 316 315 315 317 317 316 318 321 325 328 329 328 326 327 332 343 355 355 347 339 341 345 355 2 5 4 355 2
279 282 286 288 290 293 295 300 304 305 307 308 311 315 317 318 319 320 322 322 325 331 338 342 347 352 351 350 351 348 348 352 359 7 11 10 13 7
Height
1517 1517 1517 1516 1515 1514 1512 1511 1509 1504 1500 1498 1497 1494 1491 1487 1483 1479 1475 1470 1466 1462 1458 1454 1449 1444 1440 1436 1431 1427 1422 1418 1413 1409 1404 1399 1395 1390
1515 1515 1514 1513 1512 1511 1510 1508 1507 1504 1500 1496 1494 1492 1488 1484 1481 1476 1472 1468 1463 1459 1454 1450 1445 1441 1436 1432 1427 1423 1418 1413 1408 1403 1399 1394 1389 1384
1513 1512 1512 1511 1510 1509 1507 1506 1504 1502 1498 1494 1492 1489 1485 1481 1477 1473 1469 1464 1460 1455 1451 1446 1442 1437 1432 1428 1423 1418 1413 1408 1403 1398 1394 1389 1384 1379
1510 1510 1509 1508 1507 1506 1504 1503 1501 1499 1496 1491 1488 1485 1482 1478 1474 1470 1466 1462 1457 1452 1447 1443 1438 1434 1429 1424 1419 1414 1409 1404 1399 1394 1389 1384 1379 1373
1507 1507 1506 1506 1504 1503 1502 1500 1498 1496 1493 1489 1485 1482 1478 1475 1470 1466 1463 1458 1454 1449 1444 1440 1435 1430 1425 1420 1415 1410 1405 1400 1395 1390 1385 1379 1374 1369
1505 1504 1504 1503 1502 1501 1499 1497 1495 1493 1490 1487 1482 1479 1475 1472 1468 1462 1457 1454 1450 1446 1441 1437 1432 1427 1422 1417 1412 1407 1402 1396 1391 1386 1381 1375 1370 1365
1502 1502 1501 1500 1499 1498 1496 1494 1492 1489 1487 1483 1480 1476 1472 1468 1464 1460 1455 1450 1446 1442 1437 1433 1429 1424 1419 1414 1409 1403 1399 1393 1388 1383 1378 1372 1367 1361
1499 1499 1498 1498 1497 1495 1494 1491 1490 1487 1483 1480 1477 1473 1470 1467 1463 1459 1454 1448 1442 1440 1434 1430 1426 1420 1416 1411 1406 1401 1396 1391 1386 1380 1375 1369 1364 1358
1497 1496 1496 1495 1494 1492 1490 1489 1487 1485 1482 1479 1475 1472 1468 1464 1461 1456 1452 1448 1443 1438 1432 1426 1423 1417 1413 1409 1404 1399 1394 1388 1383 1378 1372 1367 1361 1356
1494 1494 1493 1492 1491 1489 1487 1485 1483 1481 1479 1476 1473 1470 1466 1463 1459 1455 1451 1446 1441 1437 1431 1424 1419 1414 1410 1406 1401 1397 1392 1387 1381 1376 1370 1365 1359 1354
1492 1492 1491 1490 1488 1487 1485 1482 1480 1478 1476 1474 1471 1468 1464 1461 1457 1453 1448 1443 1437 1433 1429 1424 1417 1411 1406 1403 1399 1395 1390 1385 1379 1374 1369 1363 1358 1353
1490 1489 1488 1487 1486 1484 1482 1480 1477 1475 1473 1470 1468 1465 1461 1458 1454 1451 1446 1441 1436 1431 1427 1423 1417 1412 1404 1400 1397 1393 1388 1383 1378 1373 1367 1362 1357 1352
1487 1486 1485 1485 1483 1482 1480 1478 1475 1473 1470 1467 1464 1461 1458 1455 1451 1448 1445 1441 1436 1431 1428 1423 1417 1413 1408 1400 1394 1391 1387 1381 1376 1371 1367 1362 1357 1352
1484 1484 1483 1482 1481 1479 1477 1475 1473 1471 1468 1465 1462 1458 1455 1452 1449 1445 1442 1439 1435 1431 1427 1423 1418 1413 1408 1401 1395 1390 1386 1381 1376 1371 1366 1362 1357 1353
1482 1482 1481 1479 1478 1477 1475 1473 1471 1468 1465 1462 1459 1456 1453 1450 1447 1443 1440 1436 1433 1430 1426 1421 1417 1413 1408 1403 1397 1391 1385 1381 1376 1372 1367 1362 1358 1353
1480 1480 1479 1477 1476 1475 1473 1471 1469 1466 1463 1461 1458 1455 1452 1448 1445 1441 1437 1434 1430 1426 1424 1420 1416 1411 1406 1402 1397 1392 1387 1383 1377 1373 1368 1363 1359 1355
1478 1477 1476 1475 1473 1472 1470 1469 1466 1464 1462 1459 1456 1453 1450 1446 1443 1440 1436 1433 1429 1424 1420 1418 1414 1410 1406 1402 1397 1393 1388 1384 1379 1374 1369 1364 1360 1357
1476 1475 1474 1473 1471 1470 1468 1466 1464 1462 1460 1457 1454 1451 1448 1445 1441 1438 1435 1432 1428 1424 1420 1416 1412 1408 1404 1400 1398 1393 1389 1385 1380 1376 1372 1367 1362 1359
1474 1473 1472 1471 1469 1468 1466 1464 1462 1461 1458 1456 1453 1450 1447 1444 1441 1437 1434 1431 1427 1424 1420 1417 1413 1409 1404 1400 1397 1395 1391 1386 1382 1377 1374 1369 1365 1361
1472 1471 1470 1469 1467 1466 1464 1463 1461 1459 1456 1454 1451 1449 1446 1443 1440 1436 1433 1430 1427 1423 1420 1417 1414 1411 1407 1404 1399 1395 1393 1388 1383 1379 1375 1371 1367 1364
1470 1469 1468 1467 1465 1464 1462 1461 1459 1457 1455 1452 1450 1447 1445 1442 1439 1436 1433 1430 1427 1423 1420 1417 1415 1412 1409 1405 1401 1396 1393 1390 1386 1382 1377 1373 1369 1365
1467 1467 1466 1465 1463 1462 1460 1459 1457 1455 1453 1451 1449 1446 1444 1441 1438 1435 1433 1430 1427 1424 1420 1418 1415 1412 1409 1406 1402 1398 1394 1391 1388 1384 1381 1377 1374 1369
1465 1464 1463 1462 1461 1460 1458 1457 1455 1453 1451 1449 1447 1445 1443 1440 1438 1435 1432 1430 1427 1424 1421 1418 1415 1413 1410 1407 1404 1400 1396 1393 1389 1386 1383 1381 1378 1375